Elizabeth City Weather Center

Moon Phase Calendar



Online Cameras

 


      

Current Conditions in Elizabeth City
11/23/2020 11:19:31 PM

45°F
Feels Like 32
Clear
Humidity
61%
Pressure
30.24"
Wind
17.2 mph (NNW)
Dew Point
32°F
UV Index
3/10 (Moderate)
Visibility
6 mi

Hourly Forecast

Date & Time Mon, Nov 23
11:00 PM
Tue, Nov 24
12:00 AM
Tue, Nov 24
1:00 AM
Tue, Nov 24
2:00 AM
Tue, Nov 24
3:00 AM
Tue, Nov 24
4:00 AM
Tue, Nov 24
5:00 AM
Tue, Nov 24
6:00 AM
Tue, Nov 24
7:00 AM
Tue, Nov 24
8:00 AM
Tue, Nov 24
9:00 AM
Tue, Nov 24
10:00 AM
Tue, Nov 24
11:00 AM
Tue, Nov 24
12:00 PM
Tue, Nov 24
1:00 PM
Tue, Nov 24
2:00 PM
Tue, Nov 24
3:00 PM
Tue, Nov 24
4:00 PM
Tue, Nov 24
5:00 PM
Tue, Nov 24
6:00 PM
Tue, Nov 24
7:00 PM
Tue, Nov 24
8:00 PM
Tue, Nov 24
9:00 PM
Tue, Nov 24
10:00 PM
Tue, Nov 24
11:00 PM
Wed, Nov 25
12:00 AM
Wed, Nov 25
1:00 AM
Wed, Nov 25
2:00 AM
Wed, Nov 25
3:00 AM
Wed, Nov 25
4:00 AM
Wed, Nov 25
5:00 AM
Wed, Nov 25
6:00 AM
Wed, Nov 25
7:00 AM
Wed, Nov 25
8:00 AM
Wed, Nov 25
9:00 AM
Wed, Nov 25
10:00 AM
Wed, Nov 25
11:00 AM
Wed, Nov 25
12:00 PM
Wed, Nov 25
1:00 PM
Wed, Nov 25
2:00 PM
Wed, Nov 25
3:00 PM
Wed, Nov 25
4:00 PM
Wed, Nov 25
5:00 PM
Wed, Nov 25
6:00 PM
Wed, Nov 25
7:00 PM
Wed, Nov 25
8:00 PM
Wed, Nov 25
9:00 PM
Wed, Nov 25
10:00 PM
Condition
Clear

Clear

Clear

Clouds

Clouds

Clouds

Clouds

Clouds

Clouds

Clear

Clear

Clear

Clear

Clear

Clear

Clear

Clear

Clear

Clouds

Clouds

Clouds

Clouds

Clouds

Clouds

Clouds

Clouds

Clouds

Clouds

Clouds

Clouds

Clouds

Clouds

Clouds

Clouds

Clouds

Clouds

Clouds

Clouds

Clouds

Clouds

Clouds

Clouds

Clouds

Clouds

Clouds

Clouds

Clouds

Clouds
Temperature 45°F44°F43°F43°F42°F41°F41°F40°F40°F42°F46°F48°F50°F51°F52°F52°F51°F49°F46°F44°F44°F44°F44°F44°F44°F43°F43°F43°F43°F43°F43°F44°F44°F47°F51°F55°F58°F60°F60°F58°F57°F56°F56°F56°F57°F58°F60°F59°F
Feels Like 36°F35°F35°F34°F34°F34°F33°F33°F32°F34°F37°F40°F42°F43°F44°F45°F44°F43°F40°F38°F39°F39°F39°F39°F39°F39°F39°F39°F39°F39°F40°F41°F41°F44°F48°F52°F55°F56°F57°F56°F55°F53°F52°F52°F52°F53°F53°F53°F
Cloudiness 1%1%0%54%49%40%31%24%20%0%0%0%0%0%0%0%4%10%13%22%35%100%100%100%100%100%100%100%100%100%100%100%100%100%100%100%100%100%100%100%100%100%100%100%100%100%100%100%
Visibility 6 mi6 mi6 mi6 mi6 mi6 mi6 mi6 mi6 mi6 mi6 mi6 mi6 mi6 mi6 mi6 mi6 mi6 mi6 mi6 mi6 mi6 mi6 mi6 mi6 mi6 mi6 mi6 mi6 mi6 mi6 mi6 mi6 mi6 mi6 mi6 mi6 mi6 mi6 mi6 mi6 mi6 mi6 mi6 mi6 mi6 mi6 mi6 mi
Precipitation 0%0%0%0%0%0%0%0%0%0%0%0%0%0%0%0%0%0%0%0%0%0%0%0%0%0%0%0%0%0%0%0%0%0%0%0%0%0%0%0%0%0%0%0%0%0%0%0%
Humidity 61%62%65%66%67%69%70%71%72%66%60%59%56%54%53%53%54%60%66%67%67%67%69%69%70%71%73%73%74%76%76%75%75%73%69%65%64%65%67%72%76%78%79%80%81%82%80%81%
Dew Point 32°F32°F32°F32°F32°F32°F31°F31°F30°F32°F33°F34°F35°F35°F35°F35°F35°F36°F35°F34°F34°F34°F34°F35°F35°F35°F35°F36°F36°F36°F36°F37°F37°F39°F41°F44°F46°F48°F49°F50°F50°F50°F50°F50°F52°F53°F54°F54°F
Pressure 30.24"30.24"30.3"30.27"30.3"30.3"30.33"30.36"30.36"30.39"30.39"30.39"30.42"30.39"30.39"30.39"30.39"30.39"30.39"30.42"30.42"30.42"30.42"30.42"30.42"30.42"30.42"30.42"30.39"30.39"30.39"30.39"30.42"30.42"30.42"30.39"30.39"30.36"30.36"30.33"30.33"30.3"30.3"30.3"30.3"30.3"30.27"30.24"
Wind Speed 9.4 mph9.4 mph8.6 mph8.2 mph7.5 mph7 mph6.6 mph7.1 mph6.8 mph8 mph9.6 mph8.7 mph8.1 mph7.8 mph7.5 mph7.3 mph6.2 mph5.3 mph5.1 mph4.8 mph4.2 mph3.7 mph3.4 mph3 mph3 mph2.4 mph1.4 mph1.7 mph1.6 mph1.3 mph0.6 mph0.1 mph0.7 mph1.1 mph1.3 mph2.3 mph4.6 mph5.6 mph5.1 mph4 mph4.4 mph5.1 mph5.9 mph6.7 mph10.2 mph11.3 mph13.1 mph12.2 mph
Wind
Direction
336°
NNW
337°
NNW
337°
NNW
337°
NNW
337°
NNW
334°
NNW
338°
NNW
334°
NNW
332°
NNW
338°
NNW
350°
N
353°
N
356°
N

N

N

N
15°
NNE
29°
NNE
39°
NE
45°
NE
45°
NE
43°
NE
37°
NE
53°
NE
51°
NE
53°
NE
74°
ENE
125°
SE
162°
SSE
184°
S
238°
WSW
153°
SSE
50°
NE
70°
ENE
92°
E
148°
SSE
174°
S
190°
S
196°
SSW
165°
SSE
147°
SSE
137°
SE
131°
SE
130°
SE
139°
SE
141°
SE
146°
SE
152°
SSE

Daily Forecast

Date High Low Precip. Humidity
Today
Nov 23

Rain
62 °F
45 °F
100%
73%
Tuesday
Nov 24

Clear
52 °F
40 °F
0%
59%
Wednesday
Nov 25

Clouds
60 °F
43 °F
0%
65%
Thursday
Nov 26

Rain
71 °F
60 °F
93%
85%
Friday
Nov 27

Rain
62 °F
54 °F
87%
79%
Saturday
Nov 28

Rain
63 °F
52 °F
89%
85%
Sunday
Nov 29

Rain
56 °F
49 °F
93%
63%
Monday
Nov 30

Rain
55 °F
45 °F
100%
95%
Tuesday
Dec 1

Clear
41 °F
31 °F
7%
73%
Wednesday
Dec 2

Clouds
45 °F
32 °F
14%
65%
Thursday
Dec 3

Rain
66 °F
49 °F
100%
75%
Friday
Dec 4

Rain
56 °F
44 °F
100%
61%
Saturday
Dec 5

Rain
48 °F
39 °F
86%
73%
Sunday
Dec 6

Rain
46 °F
38 °F
65%
84%
Monday
Dec 7

Clouds
41 °F
33 °F
0%
66%
Tuesday
Dec 8

Clear
44 °F
30 °F
0%
68%


Temperature 8-14 Day Outlook



Precipitation 8-14 Day Outlook




Quick Links
Elizabeth City News
Elizabeth City Photos
Elizabeth City Videos




About Us
Contact Us
Site Map
Search Site
Advertise With Us
   
ElizabethCity.USCoast.info
THE ELIZABETH CITY WEBSITE

Copyright 2020, Coastal Town
Privacy    |    Legal